This is the latest recevied weather packets stored in our database for station/object DG2HSI-10. If no packets are shown the sender has not sent any weather packets the latest 10 day(s).
| Time | Temp. | Humidity | Pressure | Rain* | Wind** | Luminosity | Snow |
|---|---|---|---|---|---|---|---|
| 1777807224 | 32.22° C | 27% | 1014 hPa | - | - | - | - |
| 1777806024 | 30° C | 27% | 1014.3 hPa | - | - | - | - |
| 1777804824 | 29.44° C | 29% | 1014.2 hPa | - | - | - | - |
| 1777803624 | 30° C | 28% | 1014.5 hPa | - | - | - | - |
| 1777802424 | 28.89° C | 30% | 1014.7 hPa | - | - | - | - |
| 1777801223 | 28.33° C | 30% | 1014.4 hPa | - | - | - | - |
| 1777800022 | 28.33° C | 29% | 1014.3 hPa | - | - | - | - |
| 1777798822 | 28.89° C | 31% | 1014.2 hPa | - | - | - | - |
| 1777797622 | 26.67° C | 31% | 1014.4 hPa | - | - | - | - |
| 1777796422 | 25.56° C | 31% | 1014.4 hPa | - | - | - | - |
| 1777795222 | 26.67° C | 30% | 1014.4 hPa | - | - | - | - |
| 1777794022 | 25° C | 32% | 1014.3 hPa | - | - | - | - |
| 1777792821 | 22.78° C | 34% | 1014.2 hPa | - | - | - | - |
| 1777791621 | 22.22° C | 37% | 1014.3 hPa | - | - | - | - |
| 1777790421 | 21.11° C | 37% | 1014.4 hPa | - | - | - | - |
| 1777789221 | 20° C | 39% | 1014.4 hPa | - | - | - | - |
| 1777788021 | 18.33° C | 40% | 1014.4 hPa | - | - | - | - |
| 1777786821 | 17.22° C | 44% | 1014.6 hPa | - | - | - | - |
| 1777785620 | 16.11° C | 46% | 1014.7 hPa | - | - | - | - |
| 1777784420 | 15.56° C | 47% | 1014.7 hPa | - | - | - | - |
| 1777783220 | 15° C | 49% | 1014.8 hPa | - | - | - | - |
| 1777782020 | 14.44° C | 49% | 1014.8 hPa | - | - | - | - |
| 1777780820 | 13.89° C | 52% | 1015 hPa | - | - | - | - |
| 1777779620 | 13.89° C | 55% | 1015 hPa | - | - | - | - |
| 1777778622 | 13.89° C | 53% | 1015.1 hPa | - | - | - | - |
* Rain since midnight (hover to see other rain measurements)
** Current wind speed in m/s (hover to see current wind gust speed)